This demonstration page uses our WeatherBlox Daily Observations layout. Learn more.

Left ArrowRight Arrow

Hourly Observations for May 24, 2022

Temp ( °F °C ) Dew Point ( °F °C ) Humidity (%) Winds ( mph kmh ) Pressure ( in mb ) Visibility ( mi km ) Precip ( " mm )
12:56 am 00:56 Cloudy 48 8.9 45 7.2 89 89 NNE 6 9 30.13 1020 10 16 0.00 0.00
1:56 am 01:56 Cloudy 48 8.9 45 7.2 89 89 NNE 7 11 30.10 1019 10 16 0.00 0.00
2:56 am 02:56 Cloudy 48 8.9 45 7.2 89 89 NE 6 9 30.09 1019 10 16 0.00 0.00
3:56 am 03:56 Cloudy 49 9.4 44 6.7 83 83 ENE 9 15 30.09 1019 10 16 0.00 0.00
4:56 am 04:56 Cloudy 48 8.9 44 6.7 86 86 NE 9 15 30.08 1019 10 16 0.00 0.00
5:56 am 05:56 Clear 46 7.8 42 5.6 86 86 NNE 7 11 30.08 1019 10 16 0.00 0.00
6:56 am 06:56 Mostly Sunny 45 7.2 42 5.6 90 90 NNE 6 9 30.08 1019 10 16 0.00 0.00
7:56 am 07:56 Mostly Sunny 48 8.9 43 6.1 83 83 NNE 8 13 30.07 1018 10 16 0.00 0.00
8:56 am 08:56 Cloudy 50 10 43 6.1 77 77 NE 13 20 30.06 1018 10 16 0.00 0.00
9:56 am 09:56 Cloudy 51 10.6 44 6.7 77 77 NNE 12 19 30.06 1018 10 16 0.00 0.00
10:56 am 10:56 Cloudy 52 11.1 44 6.7 75 75 NE 13 20 30.04 1017 10 16 0.00 0.00
11:56 am 11:56 Cloudy with Light Rain 53 11.7 46 7.8 77 77 NE 16 26 30.03 1017 10 16 0.00 0.00
12:56 pm 12:56 Cloudy with Light Rain 52 11.1 46 7.8 80 80 ENE 14 22 30.02 1017 10 16 0.01 0.25
1:27 pm 13:27 Cloudy with Light Rain 52 11 46 8 82 82 ENE 15 24 30.01 1016 10 16 0.01 0.25
1:35 pm 13:35 Cloudy with Light Rain 52 11 48 9 88 88 ENE 13 20 30.01 1016 10 16 0.00 0.00
1:56 pm 13:56 Cloudy with Light Rain 52 11.1 48 8.9 86 86 ENE 14 22 30.01 1016 10 16 0.03 0.76
2:20 pm 14:20 Cloudy with Rain 52 11 48 9 88 88 ENE 13 20 30.00 1016 10 16 0.02 0.51
2:53 pm 14:53 Cloudy with Rain 50 10 48 9 94 94 NE 14 22 30.00 1016 10 16 0.07 1.78
2:56 pm 14:56 Cloudy with Rain 51 10.6 48 8.9 89 89 NE 15 24 29.99 1016 10 16 0.07 1.78
3:29 pm 15:29 Cloudy with Rain 52 11 48 9 88 88 NE 13 20 29.98 1015 10 16 0.00 0.00
3:34 pm 15:34 Cloudy with Rain 50 10 48 9 94 94 NE 17 28 29.99 1015 10 16 0.00 0.00
3:52 pm 15:52 Cloudy with Rain 50 10 48 9 94 94 NE 16 26 29.99 1015 10 16 0.13 3.30
3:56 pm 15:56 Cloudy with Rain 50 10 49 9.4 96 96 NE 16 26 29.98 1015 10 16 0.13 3.30
4:48 pm 16:48 Cloudy with Light Rain 50 10 46 8 88 88 NE 20 31 29.97 1015 10 16 0.04 1.02
4:56 pm 16:56 Cloudy with Light Rain 50 10 47 8.3 89 89 NNE 20 31 29.97 1015 10 16 0.04 1.02
5:28 pm 17:28 Cloudy with Light Rain 50 10 48 9 94 94 NNE 28 44 29.96 1014 10 16 0.01 0.25
5:56 pm 17:56 Cloudy with Light Rain 50 10 48 8.9 93 93 NNE 20 31 29.96 1015 9 14 0.05 1.27
6:56 pm 18:56 Cloudy with Rain 49 9.4 48 8.9 97 97 NNE 16 26 29.96 1015 4 6 0.07 1.78
7:09 pm 19:09 Cloudy with Light Rain 48 9 46 8 94 94 NNE 22 35 29.96 1015 4 6 0.01 0.25
7:56 pm 19:56 Cloudy with Light Rain 48 8.9 47 8.3 96 96 NE 18 30 29.96 1014 4 6 0.04 1.02
8:56 pm 20:56 Cloudy with Light Rain 48 8.9 46 7.8 93 93 NNE 20 31 29.95 1014 10 16 0.01 0.25
9:56 pm 21:56 Cloudy with Light Rain 47 8.3 46 7.8 97 97 NNE 18 30 29.96 1014 5 8 0.03 0.76
10:56 pm 22:56 Cloudy with Light Rain 47 8.3 46 7.8 97 97 NNE 20 31 29.95 1014 7 11 0.02 0.51
11:56 pm 23:56 Cloudy with Light Rain 47 8.3 46 7.8 97 97 N 17 28 29.95 1014 8 13 0.00 0.00

Powered by AerisWeather